Location: Dos Palmas
(32.4468°N, 116.8732°W)
Time: 01:12:50
(UTC+00:00)

NOSS 3-1 (C) - Pass Details

Date: 20 June 2021
Orbit: 724 x 1485 km, 63.4° (Epoch: 20 July)

Event Time Altitude Azimuth Distance (km) Brightness Sun altitude
Exits shadow 07:40:39 42° 351° (N) 1,147 4.2 -34.1°
Drops below altitude 10° 07:44:53 10° 21° (NNE) 2,552 6.4 -34.1°
Sets 07:47:40 0° 26° (NNE) 3,608 7.3 -34.1°
